Minneapolis Flying Cloud, MN

5:00 PM CDT on March 26, 2017 (GMT -0500)
Flying Cloud

Weather History for KFCM - March, 2013

Change the Weather History Date:

Wednesday, March 6, 2013

  Actual Average Record
Temperature  
Mean Temperature 22 °F -  
Max Temperature 28 °F 28 °F 66 °F (2017)
Min Temperature 12 °F 13 °F 1 °F (2008)
Degree Days  
Heating Degree Days 42    
Moisture  
Dew Point 15 °F    
Average Humidity 74    
Maximum Humidity 92    
Minimum Humidity 58    
Precipitation  
Precipitation 0.00 in - - ()
Sea Level Pressure  
Sea Level Pressure 30.38 in    
Wind  
Wind Speed 6 mph (NNW)    
Max Wind Speed 12 mph    
Max Gust Speed -    
Visibility 10 miles    
Events      
Averages and records for this station are not official NWS values.
T = Trace of Precipitation, MM = Missing Value Source: NWS Daily Summary

Daily Weather History Graph

Daily Weather History Graph

Search for Another Location

Airport or City:

Trip Planner

Search our weather history database for the weather conditions in past years. The results will help you decide how hot, cold, wet, or windy it might be!

Date:

Astronomy

Mar. 06, 2013 Rise Set
Actual Time 6:42 AM CST 6:08 PM CST
Civil Twilight 6:12 AM CST 6:37 PM CST
Nautical Twilight 5:39 AM CST 7:11 PM CST
Astronomical Twilight 5:05 AM CST 7:45 PM CST
Moon 3:02 AM CST (3/6) 12:40 PM CST (3/6)
Length of Visible Light 12h 24m
Length of Day
11h 26m
Waning Crescent, 29% of the Moon is Illuminated
Mar 6
Waning Crescent
Mar 11
New
Mar 19
First Quarter
Mar 27
Full
Apr 2
Last Quarter

Hourly Weather History & Observations

Time (CST) Temp. Windchill Dew Point Humidity Pressure Visibility Wind Dir Wind Speed Gust Speed Precip Events Conditions
12:03 AM 23.0 °F 15.8 °F 17.6 °F 80% 30.29 in 10.0 mi North 5.8 mph - N/A   Overcast
12:53 AM 24.1 °F 18.2 °F 17.1 °F 75% 30.35 in 10.0 mi North 4.6 mph - N/A   Overcast
1:53 AM 24.1 °F 16.0 °F 18.0 °F 77% 30.36 in 10.0 mi NW 6.9 mph - N/A   Overcast
2:53 AM 24.1 °F 16.0 °F 18.0 °F 77% 30.37 in 10.0 mi NNW 6.9 mph - N/A   Overcast
3:53 AM 21.9 °F 11.0 °F 16.0 °F 78% 30.37 in 10.0 mi NNW 10.4 mph - N/A   Overcast
4:03 AM 21.2 °F 10.1 °F 15.8 °F 80% 30.33 in 10.0 mi North 10.4 mph - N/A   Overcast
4:15 AM 21.2 °F 11.7 °F 15.8 °F 80% 30.34 in 10.0 mi NNW 8.1 mph - N/A   Overcast
4:53 AM 21.0 °F 11.4 °F 15.1 °F 78% 30.38 in 10.0 mi North 8.1 mph - N/A   Overcast
5:04 AM 21.2 °F 11.7 °F 15.8 °F 80% 30.35 in 10.0 mi North 8.1 mph - N/A   Overcast
5:21 AM 21.2 °F 11.7 °F 15.8 °F 80% 30.35 in 10.0 mi North 8.1 mph - N/A   Overcast
6:53 AM 21.9 °F 13.4 °F 15.1 °F 75% 30.43 in 10.0 mi NNW 6.9 mph - N/A   Overcast
7:53 AM 21.9 °F 15.7 °F 14.0 °F 72% 30.44 in 10.0 mi North 4.6 mph - N/A   Overcast
8:53 AM 21.9 °F 10.4 °F 15.1 °F 75% 30.44 in 10.0 mi NNW 11.5 mph - N/A   Overcast
9:53 AM 24.1 °F 14.4 °F 16.0 °F 71% 30.44 in 10.0 mi NNW 9.2 mph - N/A   Overcast
10:53 AM 24.1 °F 13.7 °F 15.1 °F 69% 30.43 in 10.0 mi NNW 10.4 mph - N/A   Overcast
11:53 AM 25.0 °F 17.1 °F 16.0 °F 69% 30.42 in 10.0 mi North 6.9 mph - N/A   Overcast
12:53 PM 26.1 °F 20.5 °F 16.0 °F 66% 30.41 in 10.0 mi WNW 4.6 mph - N/A   Overcast
1:53 PM 28.0 °F 22.8 °F 17.1 °F 63% 30.40 in 10.0 mi North 4.6 mph - N/A   Overcast
2:53 PM 26.1 °F 21.9 °F 16.0 °F 66% 30.38 in 10.0 mi Variable 3.5 mph - N/A   Partly Cloudy
3:53 PM 28.9 °F - 16.0 °F 58% 30.38 in 10.0 mi Calm Calm - N/A   Partly Cloudy
4:08 PM 28.4 °F 23.3 °F 15.8 °F 59% 30.33 in 10.0 mi WNW 4.6 mph - N/A   Mostly Cloudy
4:50 PM 24.8 °F 17.9 °F 15.8 °F 69% 30.33 in 10.0 mi NW 5.8 mph - N/A   Scattered Clouds
4:53 PM 26.1 °F 20.5 °F 15.1 °F 63% 30.37 in 10.0 mi NW 4.6 mph - N/A   Partly Cloudy
5:18 PM 26.6 °F 21.2 °F 15.8 °F 64% 30.33 in 10.0 mi NW 4.6 mph - N/A   Mostly Cloudy
5:53 PM 25.0 °F 20.7 °F 16.0 °F 69% 30.38 in 10.0 mi WNW 3.5 mph - N/A   Overcast
6:53 PM 23.0 °F 15.8 °F 15.1 °F 72% 30.38 in 10.0 mi WNW 5.8 mph - N/A   Overcast
7:53 PM 21.0 °F 16.2 °F 15.1 °F 78% 30.38 in 10.0 mi West 3.5 mph - N/A   Overcast
8:41 PM 19.4 °F - 14.0 °F 80% 30.33 in 10.0 mi Calm Calm - N/A   Scattered Clouds
8:53 PM 19.9 °F - 15.1 °F 81% 30.38 in 10.0 mi Calm Calm - N/A   Partly Cloudy
9:53 PM 18.0 °F 12.7 °F 12.9 °F 81% 30.38 in 8.0 mi NNW 3.5 mph - N/A   Clear
10:53 PM 17.1 °F 11.7 °F 12.0 °F 81% 30.39 in 9.0 mi North 3.5 mph - N/A   Clear
11:53 PM 12.9 °F - 10.9 °F 92% 30.40 in 6.0 mi Calm Calm - N/A   Clear